Location: *
(43.2048°N, 0.1612°E)
Time: 18:56:22
(UTC+00:00)

Cosmos 2333 - Pass Details

Date: 30 September 2023
Orbit: 828 x 866 km, 70.9° (Epoch: 05 December)

Event Time Altitude Azimuth Distance (km) Brightness Sun altitude
Rises 03:20:22 0° 335° (NNW) 3,427 7.4 -28.2°
Reaches altitude 10° 03:22:49 10° 337° (NNW) 2,493 6.6 -27.8°
Maximum altitude 03:28:34 80° 64° (ENE) 877 4.2 -26.9°
Drops below altitude 10° 03:34:20 10° 153° (SSE) 2,497 6.7 -25.9°
Sets 03:36:48 0° 154° (SSE) 3,432 7.4 -25.5°
